International Skating Union - Official Site

ISU World Cup Speed Skating Heerenveen
November 10-12, 2017

Draw | Lap Times | Index | World Cup

Referee: Hanjo  HEIDEMAN  (NED)
Starter: Tom Vidar  JOHANSSON  (NOR)
StartTime: EndTime: Air Temp: Ice Temp: Humidity:
11:55 13:04 14.5℃ -12.9℃ 43%
Result 5000m Men Division B
Rankings as of Nov 12 2017 6:01PM
Rank: No.: Name: Nation: Time: Behind: Points:
1 52 Alexis  Contin FRA FRA 6:17.80200m - 19.53 - (19.5)
600m - 48.59 - (29.0)
1000m - 1:18.10 - (29.5)
1400m - 1:47.99 - (29.8)
1800m - 2:17.65 - (29.6)
2200m - 2:47.33 - (29.6)
2600m - 3:17.52 - (30.1)
3000m - 3:47.05 - (29.5)
3400m - 4:16.74 - (29.6)
3800m - 4:46.16 - (29.4)
4200m - 5:16.30 - (30.1)
4600m - 5:46.88 - (30.5)
5000m - 6:17.80 - (30.9)
32
2 121 Håvard  Bøkko NOR NOR 6:18.35200m - 18.65 - (18.6)
600m - 48.09 - (29.4)
1000m - 1:18.18 - (30.0)
1400m - 1:48.11 - (29.9)
1800m - 2:18.36 - (30.2)
2200m - 2:48.55 - (30.1)
2600m - 3:18.76 - (30.2)
3000m - 3:48.50 - (29.7)
3400m - 4:18.61 - (30.1)
3800m - 4:48.43 - (29.8)
4200m - 5:18.32 - (29.8)
4600m - 5:48.29 - (29.9)
5000m - 6:18.35 - (30.0)
0.55 27
3 156 Alexander  Rumyantsev RUS RUS 6:18.48200m - 19.43 - (19.4)
600m - 48.95 - (29.5)
1000m - 1:18.80 - (29.8)
1400m - 1:49.05 - (30.2)
1800m - 2:19.47 - (30.4)
2200m - 2:49.58 - (30.1)
2600m - 3:19.56 - (29.9)
3000m - 3:49.29 - (29.7)
3400m - 4:18.92 - (29.6)
3800m - 4:48.54 - (29.6)
4200m - 5:18.23 - (29.6)
4600m - 5:47.99 - (29.7)
5000m - 6:18.48 - (30.4)
0.68 23
4 64 Davide  Ghiotto ITA ITA 6:19.04200m - 19.16 - (19.1)
600m - 48.00 - (28.8)
1000m - 1:17.42 - (29.4)
1400m - 1:47.29 - (29.8)
1800m - 2:16.91 - (29.6)
2200m - 2:46.61 - (29.7)
2600m - 3:16.58 - (29.9)
3000m - 3:46.65 - (30.0)
3400m - 4:16.64 - (29.9)
3800m - 4:46.91 - (30.2)
4200m - 5:17.43 - (30.5)
4600m - 5:48.14 - (30.7)
5000m - 6:19.04 - (30.9)
1.24 19
5 157 Danila  Semerikov RUS RUS 6:19.83200m - 19.25 - (19.2)
600m - 48.86 - (29.6)
1000m - 1:18.80 - (29.9)
1400m - 1:48.88 - (30.0)
1800m - 2:18.72 - (29.8)
2200m - 2:48.85 - (30.1)
2600m - 3:18.70 - (29.8)
3000m - 3:48.98 - (30.2)
3400m - 4:19.21 - (30.2)
3800m - 4:49.36 - (30.1)
4200m - 5:19.35 - (29.9)
4600m - 5:49.58 - (30.2)
5000m - 6:19.83 - (30.2)
2.03 15
6 167 Nils  van der Poel SWE SWE 6:20.24200m - 19.47 - (19.4)
600m - 49.00 - (29.5)
1000m - 1:19.20 - (30.2)
1400m - 1:49.26 - (30.0)
1800m - 2:19.37 - (30.1)
2200m - 2:49.37 - (30.0)
2600m - 3:19.53 - (30.1)
3000m - 3:49.53 - (30.0)
3400m - 4:19.62 - (30.0)
3800m - 4:49.38 - (29.7)
4200m - 5:19.52 - (30.1)
4600m - 5:49.65 - (30.1)
5000m - 6:20.24 - (30.5)
2.44 11
7 93 Jaewon  Chung KOR KOR 6:20.79200m - 19.73 - (19.7)
600m - 49.65 - (29.9)
1000m - 1:20.13 - (30.4)
1400m - 1:50.73 - (30.6)
1800m - 2:20.91 - (30.1)
2200m - 2:51.40 - (30.4)
2600m - 3:21.68 - (30.2)
3000m - 3:51.97 - (30.2)
3400m - 4:22.16 - (30.1)
3800m - 4:52.37 - (30.2)
4200m - 5:21.75 - (29.3)
4600m - 5:51.12 - (29.3)
5000m - 6:20.79 - (29.6)
2.99 9
8 165 Livio  Wenger SUI SUI 6:21.08200m - 18.75 - (18.7)
600m - 48.09 - (29.3)
1000m - 1:17.69 - (29.5)
1400m - 1:47.84 - (30.1)
1800m - 2:18.17 - (30.3)
2200m - 2:48.44 - (30.2)
2600m - 3:18.45 - (30.0)
3000m - 3:48.42 - (29.9)
3400m - 4:18.41 - (29.9)
3800m - 4:48.49 - (30.0)
4200m - 5:18.90 - (30.4)
4600m - 5:49.71 - (30.8)
5000m - 6:21.08 - (31.3)
3.28 7
9 82 Dmitry  Babenko KAZ KAZ 6:21.29200m - 19.11 - (19.1)
600m - 48.92 - (29.8)
1000m - 1:19.21 - (30.2)
1400m - 1:49.17 - (29.9)
1800m - 2:19.35 - (30.1)
2200m - 2:49.45 - (30.0)
2600m - 3:19.63 - (30.1)
3000m - 3:49.68 - (30.0)
3400m - 4:19.67 - (29.9)
3800m - 4:49.68 - (30.0)
4200m - 5:20.14 - (30.4)
4600m - 5:50.74 - (30.6)
5000m - 6:21.29 - (30.5)
3.49 6
10 122 Sindre  Henriksen NOR NOR 6:21.62200m - 19.00 - (19.0)
600m - 48.65 - (29.6)
1000m - 1:19.19 - (30.5)
1400m - 1:49.72 - (30.5)
1800m - 2:19.89 - (30.1)
2200m - 2:50.01 - (30.1)
2600m - 3:20.15 - (30.1)
3000m - 3:50.44 - (30.2)
3400m - 4:20.44 - (30.0)
3800m - 4:50.43 - (29.9)
4200m - 5:20.33 - (29.8)
4600m - 5:50.64 - (30.3)
5000m - 6:21.62 - (30.9)
3.82 5
11 99 Seung-Hoon  Lee KOR KOR 6:21.82200m - 19.37 - (19.3)
600m - 49.62 - (30.2)
1000m - 1:19.60 - (29.9)
1400m - 1:50.18 - (30.5)
1800m - 2:20.47 - (30.2)
2200m - 2:50.92 - (30.4)
2600m - 3:21.27 - (30.3)
3000m - 3:51.54 - (30.2)
3400m - 4:21.62 - (30.0)
3800m - 4:51.60 - (29.9)
4200m - 5:21.75 - (30.1)
4600m - 5:52.17 - (30.4)
5000m - 6:21.82 - (29.6)
4.02 4
12 143 Jan  Szymanski POL POL 6:23.20200m - 19.33 - (19.3)
600m - 48.95 - (29.6)
1000m - 1:19.31 - (30.3)
1400m - 1:49.99 - (30.6)
1800m - 2:20.57 - (30.5)
2200m - 2:51.22 - (30.6)
2600m - 3:21.91 - (30.6)
3000m - 3:52.26 - (30.3)
3400m - 4:22.63 - (30.3)
3800m - 4:52.74 - (30.1)
4200m - 5:22.75 - (30.0)
4600m - 5:53.08 - (30.3)
5000m - 6:23.20 - (30.1)
5.40 3
13 4 Linus  Heidegger AUT AUT 6:23.56200m - 19.48 - (19.4)
600m - 49.57 - (30.0)
1000m - 1:19.59 - (30.0)
1400m - 1:49.85 - (30.2)
1800m - 2:20.12 - (30.2)
2200m - 2:50.29 - (30.1)
2600m - 3:20.51 - (30.2)
3000m - 3:50.76 - (30.2)
3400m - 4:21.07 - (30.3)
3800m - 4:51.32 - (30.2)
4200m - 5:21.73 - (30.4)
4600m - 5:52.40 - (30.6)
5000m - 6:23.56 - (31.1)
5.76 2
14 145 Adrian  Wielgat POL POL 6:24.26200m - 19.34 - (19.3)
600m - 48.69 - (29.3)
1000m - 1:18.87 - (30.1)
1400m - 1:49.11 - (30.2)
1800m - 2:19.04 - (29.9)
2200m - 2:48.99 - (29.9)
2600m - 3:19.10 - (30.1)
3000m - 3:49.17 - (30.0)
3400m - 4:19.42 - (30.2)
3800m - 4:49.77 - (30.3)
4200m - 5:20.40 - (30.6)
4600m - 5:51.67 - (31.2)
5000m - 6:24.26 - (32.5)
6.46 1
15 126 Simen Spieler  Nilsen NOR NOR 6:24.42200m - 19.12 - (19.1)
600m - 49.31 - (30.1)
1000m - 1:19.79 - (30.4)
1400m - 1:50.10 - (30.3)
1800m - 2:20.35 - (30.2)
2200m - 2:50.46 - (30.1)
2600m - 3:20.94 - (30.4)
3000m - 3:51.17 - (30.2)
3400m - 4:21.83 - (30.6)
3800m - 4:52.18 - (30.3)
4200m - 5:22.66 - (30.4)
4600m - 5:53.52 - (30.8)
5000m - 6:24.42 - (30.9)
6.62 0
16 21 Antoine   Gelinas-Beaulieu CAN CAN 6:25.67200m - 19.44 - (19.4)
600m - 49.66 - (30.2)
1000m - 1:20.60 - (30.9)
1400m - 1:51.35 - (30.7)
1800m - 2:22.01 - (30.6)
2200m - 2:52.63 - (30.6)
2600m - 3:23.34 - (30.7)
3000m - 3:54.06 - (30.7)
3400m - 4:24.56 - (30.5)
3800m - 4:55.06 - (30.5)
4200m - 5:25.43 - (30.3)
4600m - 5:55.81 - (30.3)
5000m - 6:25.67 - (29.8)
7.87 0
17 63 Riccardo  Bugari ITA ITA 6:26.85200m - 19.19 - (19.1)
600m - 48.89 - (29.6)
1000m - 1:18.95 - (30.0)
1400m - 1:49.37 - (30.4)
1800m - 2:19.80 - (30.4)
2200m - 2:50.29 - (30.4)
2600m - 3:20.79 - (30.5)
3000m - 3:51.52 - (30.7)
3400m - 4:22.30 - (30.7)
3800m - 4:53.32 - (31.0)
4200m - 5:24.42 - (31.1)
4600m - 5:55.62 - (31.1)
5000m - 6:26.85 - (31.2)
9.05 0
18 77 Takuro  Ogawa JPN JPN 6:27.42200m - 19.37 - (19.3)
600m - 49.70 - (30.3)
1000m - 1:20.44 - (30.7)
1400m - 1:51.11 - (30.6)
1800m - 2:21.85 - (30.7)
2200m - 2:52.25 - (30.4)
2600m - 3:22.67 - (30.4)
3000m - 3:53.13 - (30.4)
3400m - 4:23.76 - (30.6)
3800m - 4:54.28 - (30.5)
4200m - 5:24.93 - (30.6)
4600m - 5:55.79 - (30.8)
5000m - 6:27.42 - (31.6)
9.62 0
19 40 Sebastian  Druszkiewicz CZE CZE 6:27.46200m - 19.41 - (19.4)
600m - 49.16 - (29.7)
1000m - 1:19.00 - (29.8)
1400m - 1:49.16 - (30.1)
1800m - 2:19.03 - (29.8)
2200m - 2:49.24 - (30.2)
2600m - 3:19.49 - (30.2)
3000m - 3:50.07 - (30.5)
3400m - 4:20.89 - (30.8)
3800m - 4:52.07 - (31.1)
4200m - 5:23.45 - (31.3)
4600m - 5:55.37 - (31.9)
5000m - 6:27.46 - (32.0)
9.66 0
20 43 Viktor Hald  Thorup DEN DEN 6:28.47200m - 20.19 - (20.1)
600m - 50.58 - (30.3)
1000m - 1:20.86 - (30.2)
1400m - 1:51.42 - (30.5)
1800m - 2:21.72 - (30.2)
2200m - 2:52.05 - (30.3)
2600m - 3:22.32 - (30.2)
3000m - 3:52.66 - (30.3)
3400m - 4:23.13 - (30.4)
3800m - 4:53.99 - (30.8)
4200m - 5:24.90 - (30.9)
4600m - 5:56.45 - (31.5)
5000m - 6:28.47 - (32.0)
10.67 0
21 148 Sergey  Gryaztsov RUS RUS 6:28.61200m - 19.11 - (19.1)
600m - 49.38 - (30.2)
1000m - 1:20.28 - (30.8)
1400m - 1:51.06 - (30.7)
1800m - 2:21.98 - (30.9)
2200m - 2:52.75 - (30.7)
2600m - 3:23.68 - (30.9)
3000m - 3:54.62 - (30.9)
3400m - 4:25.54 - (30.9)
3800m - 4:56.34 - (30.7)
4200m - 5:27.14 - (30.8)
4600m - 5:57.88 - (30.7)
5000m - 6:28.61 - (30.7)
10.81 0
22 12 Vitaly  Mikhailov BLR BLR 6:28.95200m - 19.56 - (19.5)
600m - 49.79 - (30.2)
1000m - 1:20.19 - (30.3)
1400m - 1:50.96 - (30.7)
1800m - 2:21.76 - (30.7)
2200m - 2:52.59 - (30.8)
2600m - 3:23.15 - (30.5)
3000m - 3:53.91 - (30.7)
3400m - 4:24.65 - (30.7)
3800m - 4:55.67 - (31.0)
4200m - 5:26.72 - (31.0)
4600m - 5:57.83 - (31.1)
5000m - 6:28.95 - (31.1)
11.15 0
23 130 Shane  Dobbin NZL NZL 6:31.22200m - 19.35 - (19.3)
600m - 49.06 - (29.7)
1000m - 1:19.04 - (29.9)
1400m - 1:49.45 - (30.4)
1800m - 2:20.29 - (30.8)
2200m - 2:51.27 - (30.9)
2600m - 3:22.48 - (31.2)
3000m - 3:53.66 - (31.1)
3400m - 4:25.00 - (31.3)
3800m - 4:56.44 - (31.4)
4200m - 5:27.92 - (31.4)
4600m - 5:59.49 - (31.5)
5000m - 6:31.22 - (31.7)
13.42 0
24 161 Ruslan  Zakharov RUS RUS 6:31.45200m - 19.60 - (19.6)
600m - 49.56 - (29.9)
1000m - 1:20.40 - (30.8)
1400m - 1:51.00 - (30.5)
1800m - 2:22.12 - (31.1)
2200m - 2:53.26 - (31.1)
2600m - 3:24.25 - (30.9)
3000m - 3:55.36 - (31.1)
3400m - 4:26.43 - (31.0)
3800m - 4:57.43 - (31.0)
4200m - 5:28.52 - (31.0)
4600m - 5:59.87 - (31.3)
5000m - 6:31.45 - (31.5)
13.65 0
25 28 Alemasi  Kahanbai CHN CHN 6:32.14200m - 19.56 - (19.5)
600m - 49.62 - (30.0)
1000m - 1:20.11 - (30.4)
1400m - 1:50.48 - (30.3)
1800m - 2:21.27 - (30.7)
2200m - 2:52.00 - (30.7)
2600m - 3:22.99 - (30.9)
3000m - 3:53.91 - (30.9)
3400m - 4:25.02 - (31.1)
3800m - 4:56.31 - (31.2)
4200m - 5:28.19 - (31.8)
4600m - 6:00.16 - (31.9)
5000m - 6:32.14 - (31.9)
14.34 0
26 174 Emery  Lehman USA USA 6:33.62200m - 19.49 - (19.4)
600m - 50.56 - (31.0)
1000m - 1:22.24 - (31.6)
1400m - 1:53.14 - (30.9)
1800m - 2:24.11 - (30.9)
2200m - 2:55.22 - (31.1)
2600m - 3:26.32 - (31.1)
3000m - 3:57.54 - (31.2)
3400m - 4:28.64 - (31.1)
3800m - 4:59.60 - (30.9)
4200m - 5:30.65 - (31.0)
4600m - 6:01.75 - (31.1)
5000m - 6:33.62 - (31.8)
15.82 0
27 42 Stefan Due  Schmidt DEN DEN 6:36.72200m - 19.46 - (19.4)
600m - 50.04 - (30.5)
1000m - 1:21.18 - (31.1)
1400m - 1:52.51 - (31.3)
1800m - 2:23.70 - (31.1)
2200m - 2:54.98 - (31.2)
2600m - 3:26.42 - (31.4)
3000m - 3:58.15 - (31.7)
3400m - 4:29.82 - (31.6)
3800m - 5:01.63 - (31.8)
4200m - 5:33.04 - (31.4)
4600m - 6:04.59 - (31.5)
5000m - 6:36.72 - (32.1)
18.92 0
28 83 Maksim  Baklashkin KAZ KAZ 6:37.14200m - 19.57 - (19.5)
600m - 50.21 - (30.6)
1000m - 1:21.67 - (31.4)
1400m - 1:52.83 - (31.1)
1800m - 2:23.98 - (31.1)
2200m - 2:55.24 - (31.2)
2600m - 3:26.55 - (31.3)
3000m - 3:57.86 - (31.3)
3400m - 4:29.15 - (31.2)
3800m - 5:00.73 - (31.5)
4200m - 5:32.58 - (31.8)
4600m - 6:04.50 - (31.9)
5000m - 6:37.14 - (32.6)
19.34 0
29 163 Martin  Hänggi SUI SUI 6:41.86200m - 20.16 - (20.1)
600m - 51.06 - (30.9)
1000m - 1:22.44 - (31.3)
1400m - 1:53.77 - (31.3)
1800m - 1:25.33 - (28.4)
2200m - 2:57.12 - (91.7)
2600m - 3:28.78 - (31.6)
3000m - 4:00.45 - (31.6)
3400m - 4:32.25 - (31.8)
3800m - 5:04.68 - (32.4)
4200m - 5:36.67 - (31.9)
4600m - 6:08.67 - (32.0)
5000m - 6:41.86 - (33.1)
24.06 0
30 132 Reyon  Kay NZL NZL 6:43.54200m - 19.66 - (19.6)
600m - 49.32 - (29.6)
1000m - 1:19.18 - (29.8)
1400m - 1:49.60 - (30.4)
1800m - 2:19.94 - (30.3)
2200m - 2:49.94 - (30.0)
2600m - 3:20.26 - (30.3)
3000m - 3:50.89 - (30.6)
3400m - 4:21.69 - (30.8)
3800m - 4:53.46 - (31.7)
4200m - 5:26.87 - (33.4)
4600m - 6:03.36 - (36.4)
5000m - 6:43.54 - (40.1)
25.74 0
31 60 Bence  Dékány HUN HUN 6:46.33200m - 19.77 - (19.7)
600m - 50.84 - (31.0)
1000m - 1:22.35 - (31.5)
1400m - 1:54.03 - (31.6)
1800m - 2:25.85 - (31.8)
2200m - 2:57.93 - (32.0)
2600m - 3:29.60 - (31.6)
3000m - 4:01.04 - (31.4)
3400m - 4:33.27 - (32.2)
3800m - 5:05.98 - (32.7)
4200m - 5:39.19 - (33.2)
4600m - 6:12.92 - (33.7)
5000m - 6:46.33 - (33.4)
28.53 0
32 1 Joshua  Capponi AUS AUS 6:46.46200m - 19.27 - (19.2)
600m - 49.82 - (30.5)
1000m - 1:20.39 - (30.5)
1400m - 1:51.25 - (30.8)
1800m - 2:22.36 - (31.1)
2200m - 2:53.91 - (31.5)
2600m - 3:25.90 - (31.9)
3000m - 3:58.44 - (32.5)
3400m - 4:31.72 - (33.2)
3800m - 5:05.07 - (33.3)
4200m - 5:38.45 - (33.3)
4600m - 6:12.55 - (34.1)
5000m - 6:46.46 - (33.9)
28.66 0
33 38 Daniel  Zapata COL COL 6:52.00200m - 19.61 - (19.6)
600m - 50.20 - (30.5)
1000m - 1:21.17 - (30.9)
1400m - 1:52.47 - (31.2)
1800m - 2:23.88 - (31.4)
2200m - 2:55.75 - (31.8)
2600m - 3:28.03 - (32.2)
3000m - 4:00.93 - (32.9)
3400m - 4:34.43 - (33.5)
3800m - 5:08.60 - (34.1)
4200m - 5:42.84 - (34.2)
4600m - 6:17.46 - (34.6)
5000m - 6:52.00 - (34.5)
34.20 0
34 170 Wei-Lin  Tai TPE TPE 6:52.06200m - 19.31 - (19.3)
600m - 50.80 - (31.4)
1000m - 1:22.56 - (31.7)
1400m - 1:54.15 - (31.5)
1800m - 2:25.69 - (31.5)
2200m - 2:57.07 - (31.3)
2600m - 3:28.87 - (31.8)
3000m - 4:01.23 - (32.3)
3400m - 4:34.25 - (33.0)
3800m - 5:07.86 - (33.6)
4200m - 5:42.06 - (34.1)
4600m - 6:16.89 - (34.8)
5000m - 6:52.06 - (35.1)
34.26 0
35 41 Jakub  Kopriva CZE CZE 6:53.78200m - 20.35 - (20.3)
600m - 51.58 - (31.2)
1000m - 1:23.51 - (31.9)
1400m - 1:55.80 - (32.2)
1800m - 2:28.62 - (32.8)
2200m - 3:02.08 - (33.4)
2600m - 3:35.01 - (32.9)
3000m - 4:08.32 - (33.3)
3400m - 4:41.37 - (33.0)
3800m - 5:14.33 - (32.9)
4200m - 5:47.08 - (32.7)
4600m - 6:20.09 - (33.0)
5000m - 6:53.78 - (33.6)
35.98 0
36 6 Jordan  McMillen BEL BEL 6:56.33200m - 19.90 - (19.8)
600m - 50.32 - (30.4)
1000m - 1:21.70 - (31.3)
1400m - 1:53.72 - (32.0)
1800m - 2:26.06 - (32.3)
2200m - 2:58.47 - (32.4)
2600m - 3:31.11 - (32.6)
3000m - 4:04.12 - (33.0)
3400m - 4:37.65 - (33.5)
3800m - 5:11.78 - (34.1)
4200m - 5:46.33 - (34.5)
4600m - 6:20.99 - (34.6)
5000m - 6:56.33 - (35.3)
38.53 0